This demonstration page uses our WeatherBlox Daily Observations layout. Learn more.

Left ArrowRight Arrow

41.86663, -103.66717

Hourly Observations for June 16, 2022

Temp ( °F °C ) Dew Point ( °F °C ) Humidity (%) Winds ( mph kmh ) Pressure ( in mb ) Visibility ( mi km ) Precip ( " mm )
12:53 am 00:53 Clear 54 12.2 32 0 43 43 Calm 29.96 1014 10 16 0.00 0.00
1:53 am 01:53 Clear 54 12.2 31 -0.6 42 42 Calm 29.95 1014 10 16 0.00 0.00
2:53 am 02:53 Clear 48 8.9 33 0.6 56 56 NE 6 9 29.98 1015 10 16 0.00 0.00
3:53 am 03:53 Clear 45 7.2 34 1.1 66 66 NNW 8 13 30.00 1016 10 16 0.00 0.00
4:53 am 04:53 Clear 48 8.9 33 0.6 56 56 NW 5 7 30.00 1016 10 16 0.00 0.00
5:53 am 05:53 Sunny 49 9.4 33 0.6 55 55 N 5 7 30.02 1017 10 16 0.00 0.00
6:53 am 06:53 Sunny 56 13.3 36 2.2 47 47 WNW 5 7 30.03 1017 10 16 0.00 0.00
7:53 am 07:53 Sunny 63 17.2 39 3.9 41 41 WNW 6 9 30.03 1017 10 16 0.00 0.00
8:53 am 08:53 Sunny 70 21.1 39 3.9 32 32 VRB 5 7 30.04 1017 10 16 0.00 0.00
9:53 am 09:53 Sunny 76 24.4 36 2.2 23 23 VRB 3 6 30.04 1017 10 16 0.00 0.00
10:53 am 10:53 Sunny 81 27.2 34 1.1 18 18 VRB 5 7 30.03 1017 10 16 0.00 0.00
11:53 am 11:53 Sunny 85 29.4 34 1.1 16 16 S 7 11 30.01 1016 10 16 0.00 0.00
12:53 pm 12:53 Sunny 88 31.1 31 -0.6 13 13 SE 9 15 30.01 1016 10 16 0.00 0.00
1:53 pm 13:53 Sunny 89 31.7 35 1.7 15 15 ESE 8 13 29.99 1016 10 16 0.00 0.00
2:53 pm 14:53 Sunny 91 32.8 39 3.9 16 16 E 9 15 29.98 1015 10 16 0.00 0.00
3:53 pm 15:53 Sunny 93 33.9 37 2.8 14 14 ESE 13 20 29.96 1015 10 16 0.00 0.00
4:53 pm 16:53 Sunny 93 33.9 38 3.3 14 14 SE 13 20 29.93 1014 10 16 0.00 0.00
5:53 pm 17:53 Sunny 93 33.9 39 3.9 15 15 ESE 17 28 29.91 1013 10 16 0.00 0.00
6:53 pm 18:53 Sunny 91 32.8 43 6.1 19 19 ESE 20 31 29.89 1012 10 16 0.00 0.00
7:53 pm 19:53 Sunny 85 29.4 49 9.4 29 29 ESE 16 26 29.91 1013 10 16 0.00 0.00
8:53 pm 20:53 Clear 80 26.7 50 10 35 35 ESE 15 24 29.91 1013 10 16 0.00 0.00
9:53 pm 21:53 Clear 76 24.4 49 9.4 39 39 ESE 15 24 29.92 1013 10 16 0.00 0.00
10:53 pm 22:53 Clear 73 22.8 51 10.6 46 46 SE 16 26 29.94 1014 10 16 0.00 0.00
11:53 pm 23:53 Clear 72 22.2 51 10.6 48 48 SE 15 24 29.96 1015 10 16 0.00 0.00

Powered by AerisWeather